Flag for Germany Weather past 2 weeks in Ratingen, North Rhine-Westphalia, Germany

Now
90 °F

Sunny.


Feels Like: 90 °F
Forecast: 57 / 69 °F
Wind: 13 mph from South

Location: Duesseldorf

Current Time: Aug 31, 2015 at 3:43:11 PM

Latest Report: Aug 31, 2015 at 3:20 PM


Visibility: 10 mi

Pressure: 29.77 "Hg

Humidity: 41%

Dew point: 63 °F

Location of RatingenLocation

Historic Weather in Ratingen — Graph

°F

Ratingen temperature yesterday

Maximum temperature yesterday: 90 °F (at 3:20 PM)
Minimum temperature yesterday: 64 °F (at 1:20 AM)
Average temperature yesterday: 75 °F

Past Weeks' High & Low Weather Summary

 TemperatureHumidityPressure
High90 °F (Aug 30, 3:20 PM)100% (Aug 16, 2:50 PM)30.24 "Hg (Aug 16, 2:50 PM)
Low50 °F (Aug 19, 4:50 AM)30% (Aug 22, 5:20 PM)29.50 "Hg (Aug 24, 4:50 PM)
Average66 °F73%29.97 "Hg
* Reported Aug 16 2:20 PM — Aug 31 2:20 PM, Ratingen, Weather by CustomWeather, © 2015

Note: Actual official high and low records may vary slightly from our data, if they occured in-between our weather recording intervals... More about our weather records

Advertising

Ratingen weather history for previous 24 hours

 ConditionsComfort  
Time TempWeatherWind HumidityBarometerVisibility
2:20 PM
Mon, Aug 31
88 °FSunny.13 mph40%29.77 "Hg10 mi
1:50 PM88 °FSunny.13 mph40%29.80 "Hg10 mi
1:20 PM86 °FSunny.12 mph46%29.80 "Hg10 mi
12:50 PM84 °FSunny.13 mph48%29.80 "Hg10 mi
12:20 PM82 °FSunny.12 mph48%29.83 "Hg10 mi
11:50 AM82 °FSunny.10 mph51%29.83 "Hg10 mi
11:20 AM81 °FSunny.10 mph58%29.83 "Hg10 mi
10:50 AM81 °FSunny.10 mph58%29.83 "Hg10 mi
10:20 AM79 °FSunny.10 mph58%29.86 "Hg10 mi
9:50 AM77 °FSunny.13 mph69%29.86 "Hg10 mi
9:20 AM75 °FSunny.12 mph74%29.86 "Hg10 mi
8:50 AM73 °FSunny.9 mph83%29.86 "Hg10 mi
8:20 AM70 °FSunny.3 mph88%29.86 "Hg10 mi
7:50 AM68 °FSunny.5 mph88%29.86 "Hg10 mi
7:20 AM68 °FClear.3 mph88%29.89 "Hg10 mi
6:50 AM68 °FClear.3 mph88%29.89 "Hg10 mi
6:20 AM70 °FClear.10 mph83%29.89 "Hg10 mi
5:50 AM68 °FClear.9 mph88%29.89 "Hg10 mi
5:20 AM70 °FClear.9 mph83%29.92 "Hg10 mi
4:50 AM70 °FClear.12 mph78%29.92 "Hg10 mi
4:20 AM70 °FPassing clouds.7 mph78%29.92 "HgN/A
3:50 AM70 °FClear.8 mph78%29.95 "Hg10 mi
3:20 AM72 °FClear.7 mph69%29.95 "Hg10 mi
2:50 AM72 °FClear.7 mph69%29.95 "Hg10 mi
2:20 AM73 °FClear.8 mph69%29.95 "Hg10 mi
1:50 AM73 °FClear.10 mph78%29.98 "Hg10 mi
1:20 AM75 °FClear.12 mph89%29.98 "Hg10 mi
12:50 AM73 °FClear.2 mph89%29.98 "Hg10 mi
12:20 AM73 °FClear.3 mph89%29.95 "Hg10 mi
11:20 PM
Sun, Aug 30
73 °FClear.5 mph89%29.95 "Hg10 mi
10:50 PM75 °FClear.6 mph83%29.95 "Hg10 mi
10:20 PM75 °FClear.5 mph89%29.95 "Hg10 mi
9:20 PM77 °FSunny.3 mph79%29.98 "Hg10 mi
8:50 PM77 °FSunny.3 mph83%29.98 "Hg10 mi
8:20 PM81 °FSunny.2 mph74%29.98 "Hg10 mi
7:50 PM81 °FSunny.2 mph74%29.98 "Hg10 mi
7:20 PM84 °FSunny.5 mph62%29.98 "Hg10 mi
6:50 PM84 °FSunny.5 mph62%29.98 "Hg10 mi
6:20 PM86 °FSunny.6 mph59%29.95 "Hg10 mi
5:50 PM88 °FSunny.7 mph55%29.98 "Hg10 mi
5:20 PM88 °FScattered clouds.8 mph52%29.95 "HgN/A
4:50 PM90 °FScattered clouds.8 mph49%29.98 "HgN/A
4:20 PM90 °FScattered clouds.8 mph52%29.95 "HgN/A
3:50 PM90 °FScattered clouds.10 mph52%29.98 "HgN/A
3:20 PM90 °FScattered clouds.7 mph52%29.98 "HgN/A
Weather by CustomWeather, © 2015

See weather overviewHow to use our weather pages